Regional Weather Roundup
Issued by NWS

Home | Current Version | Previous Version | Text Only | Print | Product List | Glossary Off
Versions: 1 2 3 4 5 6 7 8 9 10 11 12 13 14 15 16 17 18 19 20 21 22 23 24 25 26 27

000
ASUS45 KCYS 260210
RWRWY

WYOMING REGIONAL WEATHER ROUNDUP
NATIONAL WEATHER SERVICE CHEYENNE WY
800 PM MDT SAT OCT 25 2014

NOTE:  "FAIR" INDICATES FEW OR NO CLOUDS BELOW 12,000 FEET
WITH NO SIGNIFICANT WEATHER AND/OR OBSTRUCTIONS TO VISIBILITY.

WYZ001-260300-
YELLOWSTONE NATIONAL PARK

CITY           SKY/WX    TMP DP  RH WIND       PRES   REMARKS
LK YELLOWSTONE   N/A     45  27  49 CALM      30.02
W YELLOWSTONE  NOT AVBL

$$
WYZ002>013-054>058-071-098>099-260300-
NORTHERN WYOMING

CITY           SKY/WX    TMP DP  RH WIND       PRES   REMARKS
JACKSON        CLEAR     57  28  33 S14       29.96S
CODY           MOCLDY    57  21  24 CALM      29.79
GREYBULL       PTCLDY    63  23  21 SE8       29.74F
WORLAND        PTCLDY    63  20  19 SE10      29.77F
SHERIDAN       MOCLDY    53  37  54 W5        29.76F
BUFFALO        MOCLDY    65  18  16 SE12      29.84F
GILLETTE       CLEAR     59  36  42 S14       29.85F
HULETT         FAIR      59  30  33 NE5       29.87
NEWCASTLE      FAIR      59  32  36 SE16      29.93

$$
WYZ014>020-022>026-101>103-260300-
CENTRAL WYOMING

CITY           SKY/WX    TMP DP  RH WIND       PRES   REMARKS
BIG PINEY      CLOUDY    48  22  35 VRB6      30.01F
PINEDALE       MOCLDY    45  27  49 E6        30.03
DUBOIS         FAIR      50  21  32 NW3       29.97S
LANDER         PTCLDY    64  20  18 SE7       29.87F
RIVERTON       PTCLDY    62  20  19 SE10      29.88F
CASPER         PTCLDY    66  25  21 SW14G26   29.93F
DOUGLAS        CLEAR     64  21  19 SW5       29.95F

$$
WYZ021-027>030-104>119-260300-
SOUTHERN WYOMING

CITY           SKY/WX    TMP DP  RH WIND       PRES   REMARKS
EVANSTON       PTCLDY    58  26  29 SW21      30.02F
KEMMERER       CLOUDY    52  19  28 W7        30.05F
FORT BRIDGER   FAIR      60  24  25 W10       30.07F
ROCK SPRINGS   MOCLDY    55  29  36 S8        30.04S
DIXON          FAIR      52  32  47 NE7       30.13F
RAWLINS        MOCLDY    58  27  30 S8        30.05F
SARATOGA       FAIR      61  23  23 S16       30.12F
LARAMIE        CLEAR     51  21  30 S13       30.13F
CHEYENNE       CLEAR     59  21  23 S5        30.09F
TORRINGTON     CLEAR     59  35  40 SE12      29.96F
PINE BLUFFS    FAIR      50  32  50 S7        30.05S

$$



USA.gov is the U.S. government's official web portal to all federal, state and local government web resources and services.